When you browse on this site, cookies collect data to enhance your experience and personalize the content and advertising you see.
Visit our Privacy Policy to learn more. By continuing to use the site, you agree to this use of cookies and data.
  • In Spain
  • List of Countries
  • For 7 days
  • Water Temperature
  • Satellite Maps
  • Weather Map
  • Weather Widgets
  • user-avatar
    Login

    Hourly Weather Kruhlyi

    Today, 19 May, Sunday

    Time Temperature Precipitation Wind Pressure Humidity
    00:00 +13°C° 0 mm 1 mps 713 mmHg 93%
    01:00 +13°C° 0 mm 1 mps 713 mmHg 93%
    02:00 +12°C° 0 mm 1 mps 713 mmHg 94%
    03:00 +12°C° 0 mm 1 mps 713 mmHg 94%
    04:00 +12°C° 0 mm 1 mps 713 mmHg 93%
    05:00 +12°C° 0 mm 1 mps 713 mmHg 93%
    06:00 +14°C° 0 mm 1 mps 713 mmHg 87%
    07:00 +18°C° 0 mm 1 mps 713 mmHg 80%
    08:00 +20°C° 0 mm 1 mps 713 mmHg 74%
    09:00 +22°C° 0 mm 1 mps 713 mmHg 66%
    10:00 +23°C° 0 mm 2 mps 713 mmHg 59%
    11:00 +24°C° 0 mm 2 mps 713 mmHg 51%
    12:00 +25°C° 0 mm 2 mps 713 mmHg 49%
    13:00 +25°C° 0 mm 2 mps 713 mmHg 48%
    14:00 +26°C° 0 mm 3 mps 713 mmHg 46%
    15:00 +25°C° 0 mm 2 mps 713 mmHg 47%
    16:00 +25°C° 0 mm 2 mps 713 mmHg 49%
    17:00 +25°C° 0 mm 1 mps 713 mmHg 50%
    18:00 +23°C° 0 mm 1 mps 712 mmHg 59%
    19:00 +20°C° 0 mm 1 mps 712 mmHg 69%
    20:00 +18°C° 0 mm 1 mps 712 mmHg 78%
    21:00 +16°C° 0 mm 1 mps 712 mmHg 80%
    22:00 +16°C° 0 mm 1 mps 712 mmHg 82%
    23:00 +15°C° 0 mm 1 mps 712 mmHg 84%

    Tomorrow, 20 May, Monday

    Time Temperature Precipitation Wind Pressure Humidity
    00:00 +15°C° 0 mm 1 mps 712 mmHg 84%
    01:00 +15°C° 0 mm 2 mps 712 mmHg 84%
    02:00 +15°C° 0 mm 2 mps 712 mmHg 84%
    03:00 +15°C° 0 mm 1 mps 711 mmHg 83%
    04:00 +15°C° 0 mm 1 mps 711 mmHg 82%
    05:00 +15°C° 0 mm 1 mps 711 mmHg 80%
    06:00 +18°C° 0.1 mm 1 mps 712 mmHg 73%
    07:00 +21°C° 0.1 mm 1 mps 712 mmHg 66%
    08:00 +23°C° 0.1 mm 1 mps 712 mmHg 59%
    09:00 +24°C° 0.1 mm 2 mps 713 mmHg 58%
    10:00 +24°C° 0.1 mm 2 mps 713 mmHg 56%
    11:00 +25°C° 0.1 mm 2 mps 713 mmHg 55%
    12:00 +24°C° 0.8 mm 2 mps 713 mmHg 62%
    13:00 +24°C° 0.8 mm 2 mps 713 mmHg 69%
    14:00 +23°C° 0.8 mm 2 mps 713 mmHg 76%
    15:00 +22°C° 1.6 mm 1 mps 713 mmHg 80%
    16:00 +21°C° 1.6 mm 1 mps 712 mmHg 84%
    17:00 +20°C° 1.6 mm 1 mps 712 mmHg 88%
    18:00 +19°C° 0.7 mm 1 mps 712 mmHg 90%
    19:00 +16°C° 0.7 mm 0 mps 712 mmHg 91%
    20:00 +15°C° 0.7 mm 0 mps 712 mmHg 92%
    21:00 +15°C° 0.7 mm 0 mps 712 mmHg 93%
    22:00 +14°C° 0.7 mm 0 mps 712 mmHg 93%
    23:00 +14°C° 0.7 mm 0 mps 712 mmHg 93%

    Day after tomorrow, 21 May, Tuesday

    Time Temperature Precipitation Wind Pressure Humidity
    00:00 +13°C° 0.2 mm 0 mps 712 mmHg 94%
    01:00 +13°C° 0.2 mm 0 mps 712 mmHg 95%
    02:00 +13°C° 0.2 mm 1 mps 712 mmHg 96%
    03:00 +13°C° 1 mm 1 mps 712 mmHg 97%
    04:00 +13°C° 1 mm 1 mps 712 mmHg 97%
    05:00 +13°C° 1 mm 1 mps 712 mmHg 98%
    06:00 +14°C° 0.2 mm 1 mps 712 mmHg 96%
    07:00 +14°C° 0.2 mm 1 mps 712 mmHg 94%
    08:00 +14°C° 0.2 mm 1 mps 713 mmHg 92%
    09:00 +14°C° 0.7 mm 1 mps 713 mmHg 91%
    10:00 +14°C° 0.7 mm 2 mps 713 mmHg 91%
    11:00 +14°C° 0.7 mm 2 mps 713 mmHg 90%
    12:00 +15°C° 0.3 mm 2 mps 713 mmHg 82%
    13:00 +16°C° 0.3 mm 2 mps 713 mmHg 74%
    14:00 +17°C° 0.3 mm 2 mps 713 mmHg 66%
    15:00 +17°C° 0.2 mm 2 mps 713 mmHg 67%
    16:00 +17°C° 0.2 mm 2 mps 713 mmHg 69%
    17:00 +17°C° 0.2 mm 2 mps 713 mmHg 71%
    18:00 +15°C° 0.2 mm 1 mps 713 mmHg 78%
    19:00 +14°C° 0.2 mm 1 mps 713 mmHg 86%
    20:00 +12°C° 0.2 mm 1 mps 713 mmHg 94%
    21:00 +11°C° 0 mm 1 mps 713 mmHg 94%
    22:00 +10°C° 0 mm 0 mps 714 mmHg 94%
    23:00 +9°C° 0 mm 0 mps 714 mmHg 94%

    22 May, Wednesday

    Time Temperature Precipitation Wind Pressure Humidity
    00:00 +9°C° 0 mm 0 mps 714 mmHg 94%
    01:00 +9°C° 0 mm 1 mps 714 mmHg 93%
    02:00 +9°C° 0 mm 1 mps 714 mmHg 93%
    03:00 +9°C° 0 mm 1 mps 714 mmHg 93%
    04:00 +9°C° 0 mm 1 mps 714 mmHg 93%
    05:00 +9°C° 0 mm 1 mps 715 mmHg 94%
    06:00 +11°C° 0 mm 1 mps 715 mmHg 89%
    07:00 +13°C° 0 mm 1 mps 715 mmHg 84%
    08:00 +14°C° 0 mm 1 mps 715 mmHg 80%
    09:00 +15°C° 0.2 mm 1 mps 715 mmHg 78%
    10:00 +16°C° 0.2 mm 1 mps 715 mmHg 76%
    11:00 +16°C° 0.2 mm 2 mps 715 mmHg 74%
    12:00 +16°C° 0.1 mm 2 mps 715 mmHg 73%
    13:00 +17°C° 0.1 mm 2 mps 715 mmHg 72%
    14:00 +17°C° 0.1 mm 2 mps 715 mmHg 71%
    15:00 +17°C° 0.2 mm 2 mps 715 mmHg 73%
    16:00 +16°C° 0.2 mm 2 mps 714 mmHg 76%
    17:00 +16°C° 0.2 mm 2 mps 714 mmHg 78%
    18:00 +15°C° 0.3 mm 1 mps 714 mmHg 84%
    19:00 +14°C° 0.3 mm 1 mps 714 mmHg 90%
    20:00 +13°C° 0.3 mm 1 mps 714 mmHg 96%
    21:00 +13°C° 0.2 mm 1 mps 714 mmHg 96%
    22:00 +13°C° 0.2 mm 1 mps 715 mmHg 97%
    23:00 +12°C° 0.2 mm 1 mps 715 mmHg 97%

    23 May, Thursday

    Time Temperature Precipitation Wind Pressure Humidity
    00:00 +13°C° 0.2 mm 1 mps 715 mmHg 97%
    01:00 +13°C° 0.2 mm 1 mps 715 mmHg 98%
    02:00 +13°C° 0.2 mm 1 mps 715 mmHg 98%
    03:00 +13°C° 0.1 mm 1 mps 715 mmHg 98%
    04:00 +13°C° 0.1 mm 1 mps 715 mmHg 98%
    05:00 +13°C° 0.1 mm 1 mps 715 mmHg 98%
    06:00 +13°C° 0.1 mm 1 mps 715 mmHg 96%
    07:00 +14°C° 0.1 mm 1 mps 715 mmHg 94%
    08:00 +14°C° 0.1 mm 1 mps 715 mmHg 92%
    09:00 +15°C° 0.2 mm 1 mps 715 mmHg 90%
    10:00 +16°C° 0.2 mm 1 mps 716 mmHg 87%
    11:00 +16°C° 0.2 mm 1 mps 716 mmHg 84%
    12:00 +18°C° 0.1 mm 1 mps 716 mmHg 79%
    13:00 +18°C° 0.1 mm 2 mps 715 mmHg 73%
    14:00 +19°C° 0.1 mm 2 mps 715 mmHg 68%
    15:00 +19°C° 0.1 mm 2 mps 715 mmHg 68%
    16:00 +19°C° 0.1 mm 2 mps 715 mmHg 68%
    17:00 +19°C° 0.1 mm 2 mps 715 mmHg 68%
    18:00 +18°C° 0.1 mm 1 mps 715 mmHg 75%
    19:00 +16°C° 0.1 mm 1 mps 715 mmHg 83%
    20:00 +14°C° 0.1 mm 1 mps 715 mmHg 90%
    21:00 +13°C° 0 mm 1 mps 715 mmHg 91%
    22:00 +12°C° 0 mm 1 mps 715 mmHg 93%
    23:00 +11°C° 0 mm 1 mps 715 mmHg 94%

    24 May, Friday

    Time Temperature Precipitation Wind Pressure Humidity
    00:00 +11°C° 0 mm 1 mps 715 mmHg 94%
    01:00 +11°C° 0 mm 1 mps 715 mmHg 95%
    02:00 +10°C° 0 mm 1 mps 715 mmHg 95%
    03:00 +10°C° 0 mm 1 mps 715 mmHg 95%
    04:00 +9°C° 0 mm 1 mps 715 mmHg 95%
    05:00 +9°C° 0 mm 1 mps 715 mmHg 95%
    06:00 +11°C° 0 mm 1 mps 715 mmHg 87%
    07:00 +13°C° 0 mm 1 mps 715 mmHg 79%
    08:00 +16°C° 0 mm 1 mps 715 mmHg 70%
    09:00 +19°C° 0 mm 1 mps 715 mmHg 61%
    10:00 +20°C° 0 mm 1 mps 715 mmHg 53%
    11:00 +22°C° 0 mm 1 mps 715 mmHg 44%
    12:00 +23°C° 0 mm 1 mps 715 mmHg 43%
    13:00 +23°C° 0 mm 2 mps 715 mmHg 42%
    14:00 +23°C° 0 mm 2 mps 714 mmHg 41%
    15:00 +23°C° 0 mm 2 mps 714 mmHg 43%
    16:00 +21°C° 0 mm 2 mps 714 mmHg 46%
    17:00 +21°C° 0 mm 1 mps 713 mmHg 49%
    18:00 +19°C° 0 mm 1 mps 713 mmHg 60%
    19:00 +16°C° 0 mm 1 mps 713 mmHg 70%
    20:00 +14°C° 0 mm 1 mps 713 mmHg 81%
    21:00 +13°C° 0 mm 1 mps 713 mmHg 85%
    22:00 +12°C° 0 mm 1 mps 713 mmHg 89%
    23:00 +11°C° 0 mm 1 mps 713 mmHg 93%
    Show more